Location: Street
(51.1247°N, 2.7429°W)
Time: 06:01:24
(UTC+00:00)

SR - Pass Details

Date: 26 November 2020
Orbit: 575 x 880 km, 66.7° (Epoch: 25 January)

Event Time Altitude Azimuth Distance (km) Brightness Sun altitude
Rises 20:19:56 0° 235° (SW) 2,825 ? -38.3°
Enters shadow 20:21:07 - 238° (WSW) 2,362 ? -38.5°
Reaches altitude 10° 20:22:11 10° 241° (WSW) 1,955 - -38.6°
Maximum altitude 20:26:25 47° 316° (NW) 848 - -39.3°
Drops below altitude 10° 20:31:01 10° 31° (NNE) 2,118 - -40.0°
Sets 20:33:32 0° 37° (NE) 3,090 - -40.3°
